Location: Clanezzo
(45.7500°N, 9.6000°E)
Time: 04:21:10
(UTC+00:00)

CZ-4B DEB - Pass Details

Date: 12 May 2021
Orbit: 408 x 415 km, 97.3° (Epoch: 18 June)

Event Time Altitude Azimuth Distance (km) Brightness Sun altitude
Exits shadow 21:17:29 86° 302° (WNW) 432 4.2 -20.3°
Drops below altitude 10° 21:20:42 10° 347° (NNW) 1,523 8.1 -20.6°
Sets 21:22:43 0° 348° (NNW) 2,393 9.4 -20.8°
